| time (UTC) | temp F | wind direction | speed MPH | gust MPH | rain 1hr in | rain 24hr in | rain mn in | humidity % | barometer mb |
| 20260510215600 | 68 | 285 | 8.0 | 12.0 | 0.00 | 0.33 | 0.00 | 34 | 1017.3 |
| 20260510215100 | 68 | 45 | 4.0 | 10.0 | 0.00 | 0.33 | 0.00 | 37 | 1017.3 |
| 20260510214559 | 68 | 354 | 5.0 | 12.0 | 0.00 | 0.33 | 0.00 | 36 | 1017.2 |
| 20260510214059 | 69 | 314 | 7.0 | 11.0 | 0.00 | 0.33 | 0.00 | 36 | 1017.1 |
| 20260510213558 | 69 | 290 | 5.0 | 14.0 | 0.00 | 0.33 | 0.00 | 35 | 1016.9 |
| 20260510212557 | 69 | 349 | 4.0 | 7.0 | 0.00 | 0.33 | 0.00 | 34 | 1016.9 |
| 20260510212057 | 69 | 326 | 5.0 | 14.0 | 0.00 | 0.33 | 0.00 | 34 | 1016.9 |
| 20260510211056 | 69 | 316 | 5.0 | 9.0 | 0.00 | 0.33 | 0.00 | 33 | 1016.7 |
| 20260510210555 | 69 | 276 | 1.0 | 6.0 | 0.00 | 0.33 | 0.00 | 34 | 1016.6 |
| 20260510205554 | 68 | 297 | 8.0 | 11.0 | 0.00 | 0.33 | 0.00 | 34 | 1016.6 |
| 20260510205054 | 68 | 325 | 5.0 | 9.0 | 0.00 | 0.33 | 0.00 | 34 | 1016.5 |
| 20260510204553 | 69 | 353 | 1.0 | 7.0 | 0.00 | 0.33 | 0.00 | 34 | 1016.4 |
| 20260510204053 | 68 | 297 | 7.0 | 9.0 | 0.00 | 0.33 | 0.00 | 35 | 1016.5 |
| 20260510203552 | 68 | 352 | 2.0 | 8.0 | 0.00 | 0.33 | 0.00 | 36 | 1016.5 |
| 20260510203051 | 68 | 7 | 4.0 | 10.0 | 0.00 | 0.33 | 0.00 | 37 | 1016.6 |
| 20260510202050 | 68 | 10 | 8.0 | 10.0 | 0.00 | 0.33 | 0.00 | 36 | 1016.7 |
| 20260510201550 | 68 | 283 | 0.0 | 9.0 | 0.00 | 0.33 | 0.00 | 35 | 1016.9 |
| 20260510201049 | 68 | 319 | 5.0 | 8.0 | 0.00 | 0.33 | 0.00 | 36 | 1016.9 |
| 20260510200549 | 67 | 339 | 7.0 | 13.0 | 0.00 | 0.33 | 0.00 | 37 | 1017.0 |
| 20260510195047 | 67 | 328 | 7.0 | 13.0 | 0.00 | 0.33 | 0.00 | 38 | 1016.9 |
| 20260510194546 | 68 | 330 | 10.0 | 15.0 | 0.00 | 0.33 | 0.00 | 37 | 1016.9 |
| 20260510193545 | 68 | 248 | 9.0 | 14.0 | 0.00 | 0.33 | 0.00 | 37 | 1017.0 |
| 20260510193044 | 68 | 248 | 3.0 | 15.0 | 0.00 | 0.33 | 0.00 | 37 | 1017.1 |
| 20260510192544 | 68 | 335 | 8.0 | 15.0 | 0.00 | 0.33 | 0.00 | 36 | 1017.0 |
| 20260510192043 | 68 | 17 | 8.0 | 13.0 | 0.00 | 0.33 | 0.00 | 37 | 1017.0 |
| 20260510191543 | 68 | 300 | 4.0 | 9.0 | 0.00 | 0.33 | 0.00 | 40 | 1017.0 |
| 20260510191042 | 67 | 21 | 7.0 | 12.0 | 0.00 | 0.33 | 0.00 | 38 | 1017.0 |
| 20260510190542 | 68 | 27 | 4.0 | 14.0 | 0.00 | 0.33 | 0.00 | 39 | 1016.9 |
| 20260510185541 | 67 | 124 | 3.0 | 8.0 | 0.00 | 0.33 | 0.00 | 37 | 1016.9 |
| 20260510185040 | 67 | 326 | 4.0 | 14.0 | 0.00 | 0.33 | 0.00 | 38 | 1017.0 |
| 20260510184539 | 68 | 307 | 6.0 | 14.0 | 0.00 | 0.33 | 0.00 | 38 | 1016.9 |
| 20260510184039 | 67 | 316 | 9.0 | 13.0 | 0.00 | 0.33 | 0.00 | 38 | 1017.0 |
| 20260510183538 | 68 | 330 | 11.0 | 14.0 | 0.00 | 0.33 | 0.00 | 38 | 1016.9 |
| 20260510183038 | 68 | 210 | 2.0 | 5.0 | 0.00 | 0.33 | 0.00 | 37 | 1016.7 |
| 20260510182538 | 67 | 68 | 1.0 | 7.0 | 0.00 | 0.33 | 0.00 | 38 | 1017.0 |
| 20260510182037 | 67 | 356 | 0.0 | 9.0 | 0.00 | 0.33 | 0.00 | 38 | 1017.0 |
| 20260510181536 | 67 | 335 | 9.0 | 10.0 | 0.00 | 0.33 | 0.00 | 38 | 1017.1 |
| 20260510181036 | 67 | 68 | 1.0 | 14.0 | 0.00 | 0.33 | 0.00 | 39 | 1017.0 |
| 20260510180535 | 67 | 342 | 0.0 | 9.0 | 0.00 | 0.33 | 0.00 | 39 | 1017.0 |
| 20260510175534 | 67 | 336 | 8.0 | 8.0 | 0.00 | 0.33 | 0.00 | 38 | 1016.9 |
| 20260510175034 | 67 | 11 | 2.0 | 11.0 | 0.00 | 0.33 | 0.00 | 39 | 1017.0 |
| 20260510174532 | 66 | 287 | 5.0 | 11.0 | 0.00 | 0.33 | 0.00 | 39 | 1016.9 |
| 20260510174032 | 66 | 329 | 7.0 | 8.0 | 0.00 | 0.33 | 0.00 | 39 | 1016.9 |
| 20260510173530 | 66 | 10 | 2.0 | 8.0 | 0.00 | 0.33 | 0.00 | 38 | 1017.1 |
| 20260510173030 | 66 | 86 | 5.0 | 10.0 | 0.00 | 0.33 | 0.00 | 39 | 1017.1 |
| 20260510172529 | 66 | 48 | 2.0 | 13.0 | 0.00 | 0.33 | 0.00 | 40 | 1017.2 |
| 20260510172029 | 66 | 68 | 4.0 | 9.0 | 0.00 | 0.33 | 0.00 | 40 | 1017.2 |
| 20260510171528 | 67 | 321 | 4.0 | 7.0 | 0.00 | 0.33 | 0.00 | 40 | 1017.0 |
| 20260510171026 | 66 | 333 | 1.0 | 11.0 | 0.00 | 0.33 | 0.00 | 39 | 1016.7 |
| 20260510170526 | 65 | 326 | 8.0 | 10.0 | 0.00 | 0.33 | 0.00 | 38 | 1016.7 |
| 20260510170025 | 66 | 318 | 7.0 | 10.0 | 0.00 | 0.33 | 0.00 | 39 | 1016.8 |
| 20260510165525 | 66 | 4 | 6.0 | 12.0 | 0.00 | 0.33 | 0.00 | 38 | 1016.7 |
| 20260510165024 | 66 | 263 | 1.0 | 12.0 | 0.00 | 0.33 | 0.00 | 39 | 1016.7 |
| 20260510164524 | 66 | 11 | 7.0 | 9.0 | 0.00 | 0.33 | 0.00 | 40 | 1016.7 |
| 20260510164505 | 66 | 59 | 4.0 | 6.0 | 0.00 | 0.33 | 0.00 | 38 | 1017.0 |
| 20260510164023 | 66 | 59 | 4.0 | 6.0 | 0.00 | 0.33 | 0.00 | 38 | 1017.0 |
| 20260510163523 | 66 | 347 | 3.0 | 10.0 | 0.00 | 0.33 | 0.00 | 39 | 1016.9 |
| 20260510163022 | 65 | 298 | 4.0 | 15.0 | 0.00 | 0.33 | 0.00 | 40 | 1016.9 |
| 20260510162021 | 65 | 58 | 7.0 | 13.0 | 0.00 | 0.33 | 0.00 | 41 | 1016.8 |
| 20260510161020 | 65 | 323 | 6.0 | 15.0 | 0.00 | 0.33 | 0.00 | 40 | 1016.7 |
| 20260510160520 | 65 | 46 | 10.0 | 10.0 | 0.00 | 0.33 | 0.00 | 40 | 1016.9 |
| 20260510160019 | 65 | 11 | 8.0 | 11.0 | 0.00 | 0.33 | 0.00 | 41 | 1016.7 |
| 20260510155519 | 65 | 42 | 4.0 | 9.0 | 0.00 | 0.33 | 0.00 | 40 | 1016.8 |
| 20260510155018 | 65 | 340 | 4.0 | 10.0 | 0.00 | 0.33 | 0.00 | 41 | 1016.8 |
| 20260510154518 | 65 | 3 | 6.0 | 10.0 | 0.00 | 0.33 | 0.00 | 40 | 1016.8 |
| 20260510154017 | 65 | 321 | 3.0 | 10.0 | 0.00 | 0.33 | 0.00 | 46 | 1016.7 |
| 20260510153517 | 64 | 45 | 7.0 | 10.0 | 0.00 | 0.33 | 0.00 | 44 | 1016.7 |
| 20260510153015 | 64 | 342 | 5.0 | 9.0 | 0.00 | 0.33 | 0.00 | 44 | 1016.7 |
| 20260510152513 | 64 | 66 | 5.0 | 11.0 | 0.00 | 0.33 | 0.00 | 46 | 1016.6 |
| 20260510151512 | 63 | 72 | 5.0 | 11.0 | 0.00 | 0.33 | 0.00 | 46 | 1016.6 |
| 20260510151012 | 63 | 15 | 3.0 | 9.0 | 0.00 | 0.33 | 0.00 | 45 | 1016.5 |
| 20260510150511 | 63 | 18 | 6.0 | 8.0 | 0.00 | 0.33 | 0.00 | 46 | 1016.5 |
| 20260510145510 | 62 | 354 | 1.0 | 13.0 | 0.00 | 0.33 | 0.00 | 48 | 1016.4 |
| 20260510144509 | 62 | 28 | 8.0 | 12.0 | 0.00 | 0.33 | 0.00 | 44 | 1016.4 |
| 20260510144009 | 62 | 333 | 4.0 | 15.0 | 0.00 | 0.33 | 0.00 | 45 | 1016.3 |
| 20260510143508 | 62 | 21 | 4.0 | 16.0 | 0.00 | 0.33 | 0.00 | 45 | 1016.3 |
| 20260510143008 | 62 | 333 | 4.0 | 12.0 | 0.00 | 0.33 | 0.00 | 45 | 1016.1 |
| 20260510142507 | 63 | 53 | 5.0 | 11.0 | 0.00 | 0.33 | 0.00 | 45 | 1016.1 |
| 20260510142007 | 62 | 38 | 4.0 | 11.0 | 0.00 | 0.33 | 0.00 | 44 | 1016.0 |
| 20260510141006 | 62 | 8 | 4.0 | 12.0 | 0.00 | 0.33 | 0.00 | 45 | 1015.9 |
| 20260510140505 | 62 | 28 | 8.0 | 12.0 | 0.00 | 0.33 | 0.00 | 43 | 1015.8 |
| 20260510140005 | 62 | 48 | 8.0 | 13.0 | 0.00 | 0.33 | 0.00 | 45 | 1015.8 |
| 20260510135504 | 62 | 332 | 7.0 | 9.0 | 0.00 | 0.33 | 0.00 | 46 | 1015.6 |
| 20260510135004 | 61 | 343 | 6.0 | 9.0 | 0.00 | 0.33 | 0.00 | 45 | 1015.4 |
| 20260510134503 | 61 | 308 | 5.0 | 8.0 | 0.00 | 0.33 | 0.00 | 49 | 1015.4 |
| 20260510133502 | 61 | 34 | 4.0 | 9.0 | 0.00 | 0.33 | 0.00 | 52 | 1015.1 |
| 20260510133001 | 61 | 23 | 6.0 | 10.0 | 0.00 | 0.33 | 0.00 | 52 | 1015.0 |
| 20260510132501 | 60 | 48 | 5.0 | 9.0 | 0.00 | 0.33 | 0.00 | 53 | 1014.9 |
| 20260510132001 | 60 | 13 | 5.0 | 11.0 | 0.00 | 0.33 | 0.00 | 54 | 1014.8 |
| 20260510131500 | 60 | 3 | 6.0 | 13.0 | 0.00 | 0.33 | 0.00 | 55 | 1014.8 |
| 20260510130459 | 59 | 18 | 9.0 | 10.0 | 0.00 | 0.33 | 0.00 | 56 | 1014.6 |
| 20260510125958 | 60 | 42 | 4.0 | 12.0 | 0.00 | 0.33 | 0.00 | 56 | 1014.5 |
| 20260510125458 | 59 | 14 | 6.0 | 10.0 | 0.00 | 0.33 | 0.00 | 57 | 1014.6 |
| 20260510124457 | 59 | 34 | 8.0 | 10.0 | 0.00 | 0.33 | 0.00 | 58 | 1014.3 |
| 20260510123956 | 59 | 17 | 6.0 | 10.0 | 0.00 | 0.33 | 0.00 | 60 | 1014.3 |
| 20260510123456 | 58 | 359 | 7.0 | 7.0 | 0.00 | 0.33 | 0.00 | 62 | 1014.3 |
| 20260510122955 | 58 | 335 | 5.0 | 9.0 | 0.00 | 0.33 | 0.00 | 64 | 1014.4 |
| 20260510121954 | 57 | 335 | 5.0 | 6.0 | 0.00 | 0.33 | 0.00 | 66 | 1014.4 |
| 20260510121453 | 57 | 345 | 3.0 | 5.0 | 0.00 | 0.33 | 0.00 | 67 | 1014.3 |
| 20260510120950 | 57 | 302 | 2.0 | 6.0 | 0.00 | 0.33 | 0.00 | 67 | 1014.2 |
| 20260510120449 | 57 | 6 | 4.0 | 7.0 | 0.00 | 0.33 | 0.00 | 67 | 1014.1 |
| 20260510115949 | 57 | 322 | 0.0 | 5.0 | 0.00 | 0.33 | 0.00 | 67 | 1013.7 |
| 20260510115448 | 57 | 75 | 0.0 | 0.0 | 0.00 | 0.33 | 0.00 | 67 | 1013.5 |
| 20260510114948 | 57 | 56 | 0.0 | 5.0 | 0.00 | 0.33 | 0.00 | 68 | 1013.6 |
| 20260510114447 | 57 | 56 | 1.0 | 5.0 | 0.00 | 0.33 | 0.00 | 68 | 1013.4 |
| 20260510113946 | 57 | 13 | 0.0 | 4.0 | 0.00 | 0.33 | 0.00 | 68 | 1013.6 |
| 20260510113445 | 57 | 6 | 0.0 | 4.0 | 0.00 | 0.33 | 0.00 | 68 | 1013.6 |
| 20260510112945 | 57 | 4 | 1.0 | 4.0 | 0.00 | 0.33 | 0.00 | 68 | 1013.6 |
| 20260510112444 | 57 | 336 | 0.0 | 5.0 | 0.00 | 0.33 | 0.00 | 67 | 1013.6 |
| 20260510111945 | 57 | 347 | 2.0 | 6.0 | 0.00 | 0.33 | 0.00 | 68 | 1013.6 |
| 20260510110943 | 57 | 345 | 3.0 | 5.0 | 0.00 | 0.33 | 0.00 | 67 | 1013.4 |
| 20260510110442 | 57 | 316 | 4.0 | 7.0 | 0.00 | 0.33 | 0.00 | 67 | 1013.2 |
| 20260510105942 | 57 | 338 | 4.0 | 8.0 | 0.00 | 0.33 | 0.00 | 67 | 1013.1 |
| 20260510104940 | 57 | 338 | 5.0 | 7.0 | 0.00 | 0.33 | 0.00 | 67 | 1012.9 |
| 20260510104439 | 57 | 25 | 3.0 | 6.0 | 0.00 | 0.33 | 0.00 | 67 | 1012.9 |
| 20260510103939 | 58 | 34 | 3.0 | 7.0 | 0.00 | 0.33 | 0.00 | 67 | 1012.7 |
| 20260510102938 | 57 | 342 | 4.0 | 6.0 | 0.00 | 0.33 | 0.00 | 68 | 1012.6 |
| 20260510102437 | 58 | 352 | 4.0 | 7.0 | 0.00 | 0.33 | 0.00 | 68 | 1012.5 |
| 20260510101936 | 58 | 342 | 2.0 | 5.0 | 0.00 | 0.33 | 0.00 | 68 | 1012.5 |
| 20260510101436 | 58 | 10 | 1.0 | 6.0 | 0.00 | 0.33 | 0.00 | 68 | 1012.6 |
| 20260510100935 | 58 | 343 | 4.0 | 7.0 | 0.00 | 0.33 | 0.00 | 69 | 1012.5 |
| 20260510100435 | 58 | 352 | 4.0 | 7.0 | 0.00 | 0.33 | 0.00 | 69 | 1012.4 |
| 20260510095934 | 58 | 342 | 5.0 | 10.0 | 0.00 | 0.33 | 0.00 | 69 | 1012.3 |
| 20260510095434 | 58 | 322 | 4.0 | 8.0 | 0.00 | 0.33 | 0.00 | 70 | 1012.3 |
| 20260510094933 | 58 | 321 | 3.0 | 6.0 | 0.00 | 0.33 | 0.00 | 71 | 1012.2 |
| 20260510094433 | 58 | 332 | 4.0 | 7.0 | 0.00 | 0.33 | 0.00 | 71 | 1012.1 |
| 20260510093432 | 59 | 312 | 5.0 | 5.0 | 0.00 | 0.33 | 0.00 | 73 | 1012.0 |
| 20260510092931 | 59 | 6 | 3.0 | 7.0 | 0.00 | 0.33 | 0.00 | 74 | 1012.1 |
| 20260510092431 | 59 | 340 | 3.0 | 6.0 | 0.00 | 0.33 | 0.00 | 75 | 1012.0 |
| 20260510091930 | 59 | 330 | 2.0 | 3.0 | 0.00 | 0.33 | 0.00 | 75 | 1012.0 |
| 20260510091430 | 59 | 326 | 2.0 | 3.0 | 0.00 | 0.33 | 0.00 | 77 | 1012.0 |
| 20260510090929 | 59 | 356 | 1.0 | 2.0 | 0.00 | 0.33 | 0.00 | 77 | 1011.9 |
| 20260510090429 | 59 | 346 | 0.0 | 2.0 | 0.00 | 0.33 | 0.00 | 78 | 1011.9 |
| 20260510085928 | 59 | 354 | 0.0 | 4.0 | 0.00 | 0.33 | 0.00 | 79 | 1011.9 |
| 20260510085428 | 59 | 321 | 2.0 | 4.0 | 0.00 | 0.33 | 0.00 | 79 | 1011.6 |
| 20260510084927 | 59 | 24 | 1.0 | 5.0 | 0.00 | 0.33 | 0.00 | 79 | 1011.5 |
| 20260510084427 | 59 | 340 | 3.0 | 6.0 | 0.00 | 0.33 | 0.00 | 79 | 1011.6 |
| 20260510083926 | 59 | 326 | 3.0 | 6.0 | 0.00 | 0.33 | 0.00 | 79 | 1011.5 |
| 20260510083426 | 58 | 319 | 2.0 | 6.0 | 0.00 | 0.33 | 0.00 | 80 | 1011.5 |
| 20260510082425 | 57 | 14 | 3.0 | 2.0 | 0.00 | 0.33 | 0.00 | 82 | 1011.2 |
| 20260510081924 | 57 | 357 | 0.0 | 0.0 | 0.00 | 0.33 | 0.00 | 82 | 1011.2 |
| 20260510081423 | 57 | 357 | 0.0 | 0.0 | 0.00 | 0.33 | 0.00 | 81 | 1011.0 |
| 20260510080923 | 58 | 357 | 0.0 | 0.0 | 0.00 | 0.33 | 0.00 | 81 | 1010.8 |
| 20260510080422 | 58 | 357 | 0.0 | 0.0 | 0.00 | 0.33 | 0.00 | 80 | 1010.7 |
| 20260510075922 | 58 | 357 | 0.0 | 0.0 | 0.00 | 0.33 | 0.00 | 80 | 1010.6 |
| 20260510075421 | 58 | 357 | 0.0 | 0.0 | 0.00 | 0.33 | 0.00 | 80 | 1010.5 |
| 20260510074921 | 58 | 357 | 0.0 | 0.0 | 0.00 | 0.33 | 0.00 | 81 | 1010.4 |
| 20260510074420 | 58 | 357 | 0.0 | 0.0 | 0.00 | 0.33 | 0.00 | 80 | 1010.2 |
| 20260510073920 | 58 | 357 | 0.0 | 0.0 | 0.00 | 0.33 | 0.00 | 80 | 1010.1 |
| 20260510072919 | 59 | 357 | 0.0 | 0.0 | 0.00 | 0.33 | 0.00 | 76 | 1010.2 |
| 20260510072418 | 59 | 357 | 0.0 | 0.0 | 0.00 | 0.33 | 0.00 | 76 | 1010.2 |
| 20260510071918 | 59 | 357 | 0.0 | 0.0 | 0.00 | 0.33 | 0.00 | 75 | 1010.2 |
| 20260510071417 | 59 | 357 | 0.0 | 0.0 | 0.00 | 0.33 | 0.00 | 73 | 1010.2 |
| 20260510070916 | 60 | 357 | 0.0 | 0.0 | 0.00 | 0.33 | 0.00 | 73 | 1010.1 |
| 20260510070416 | 60 | 357 | 0.0 | 0.0 | 0.00 | 0.33 | 0.00 | 72 | 1010.3 |
| 20260510065915 | 61 | 357 | 0.0 | 0.0 | 0.00 | 0.33 | 0.00 | 69 | 1010.4 |
| 20260510065415 | 61 | 357 | 0.0 | 0.0 | 0.00 | 0.33 | 0.00 | 68 | 1010.5 |
| 20260510064914 | 62 | 357 | 0.0 | 0.0 | 0.00 | 0.33 | 0.00 | 67 | 1010.5 |
| 20260510064414 | 62 | 357 | 0.0 | 1.0 | 0.00 | 0.33 | 0.00 | 66 | 1010.4 |
| 20260510063913 | 63 | 357 | 0.0 | 4.0 | 0.00 | 0.33 | 0.00 | 65 | 1010.5 |
| 20260510063413 | 63 | 273 | 1.0 | 8.0 | 0.00 | 0.33 | 0.00 | 64 | 1010.4 |
| 20260510062912 | 63 | 340 | 1.0 | 11.0 | 0.00 | 0.33 | 0.00 | 64 | 1010.4 |
| 20260510062412 | 63 | 27 | 6.0 | 5.0 | 0.00 | 0.33 | 0.00 | 65 | 1010.6 |
| 20260510061911 | 64 | 338 | 2.0 | 6.0 | 0.00 | 0.33 | 0.00 | 63 | 1010.5 |
| 20260510061411 | 64 | 246 | 2.0 | 4.0 | 0.00 | 0.33 | 0.00 | 62 | 1010.4 |
| 20260510060910 | 64 | 248 | 2.0 | 6.0 | 0.00 | 0.33 | 0.00 | 62 | 1010.5 |
| 20260510055909 | 64 | 266 | 2.0 | 8.0 | 0.00 | 0.33 | 0.00 | 61 | 1010.4 |
| 20260510055409 | 64 | 242 | 4.0 | 7.0 | 0.00 | 0.33 | 0.00 | 61 | 1010.4 |
| 20260510054908 | 64 | 240 | 4.0 | 5.0 | 0.00 | 0.33 | 0.00 | 61 | 1010.4 |
| 20260510054408 | 64 | 264 | 3.0 | 7.0 | 0.00 | 0.33 | 0.00 | 61 | 1010.4 |
| 20260510053907 | 64 | 231 | 6.0 | 7.0 | 0.00 | 0.33 | 0.00 | 60 | 1010.4 |
| 20260510053407 | 64 | 246 | 3.0 | 6.0 | 0.00 | 0.33 | 0.00 | 61 | 1010.4 |
| 20260510052906 | 64 | 288 | 2.0 | 6.0 | 0.00 | 0.33 | 0.00 | 60 | 1010.3 |
| 20260510052406 | 64 | 242 | 3.0 | 6.0 | 0.00 | 0.33 | 0.00 | 60 | 1010.4 |
| 20260510051905 | 64 | 274 | 3.0 | 5.0 | 0.00 | 0.33 | 0.00 | 61 | 1010.3 |
| 20260510051404 | 64 | 232 | 3.0 | 4.0 | 0.00 | 0.33 | 0.00 | 60 | 1010.3 |
| 20260510050904 | 64 | 238 | 2.0 | 2.0 | 0.00 | 0.33 | 0.00 | 60 | 1010.2 |
| 20260510050404 | 65 | 235 | 0.0 | 4.0 | 0.00 | 0.33 | 0.00 | 60 | 1010.3 |
| 20260510045903 | 65 | 263 | 2.0 | 3.0 | 0.00 | 0.33 | 0.00 | 60 | 1010.3 |
| 20260510045402 | 65 | 298 | 1.0 | 5.0 | 0.00 | 0.02 | 0.33 | 59 | 1010.2 |
| 20260510044902 | 65 | 252 | 2.0 | 6.0 | 0.00 | 0.02 | 0.33 | 59 | 1010.2 |
| 20260510044401 | 65 | 249 | 4.0 | 6.0 | 0.00 | 0.02 | 0.33 | 59 | 1010.1 |
| 20260510043901 | 65 | 207 | 4.0 | 7.0 | 0.00 | 0.02 | 0.33 | 58 | 1010.1 |
| 20260510043400 | 65 | 263 | 4.0 | 8.0 | 0.00 | 0.02 | 0.33 | 58 | 1010.1 |
| 20260510042900 | 65 | 255 | 6.0 | 9.0 | 0.00 | 0.02 | 0.33 | 58 | 1010.2 |
| 20260510042359 | 66 | 263 | 4.0 | 9.0 | 0.00 | 0.02 | 0.33 | 57 | 1010.2 |
| 20260510041859 | 66 | 252 | 5.0 | 11.0 | 0.00 | 0.02 | 0.33 | 57 | 1010.1 |
| 20260510041358 | 66 | 224 | 8.0 | 10.0 | 0.00 | 0.02 | 0.33 | 56 | 1010.1 |
| 20260510040858 | 66 | 215 | 5.0 | 8.0 | 0.00 | 0.02 | 0.33 | 57 | 1010.0 |
| 20260510035857 | 65 | 215 | 4.0 | 5.0 | 0.00 | 0.02 | 0.33 | 58 | 1009.9 |
| 20260510034856 | 66 | 224 | 3.0 | 5.0 | 0.00 | 0.02 | 0.33 | 57 | 1010.1 |
| 20260510034355 | 66 | 232 | 2.0 | 4.0 | 0.00 | 0.02 | 0.33 | 56 | 1010.0 |
| 20260510033354 | 66 | 252 | 3.0 | 6.0 | 0.00 | 0.02 | 0.33 | 56 | 1010.2 |
| 20260510032853 | 66 | 243 | 0.0 | 5.0 | 0.00 | 0.02 | 0.33 | 56 | 1010.1 |
| 20260510032353 | 66 | 252 | 3.0 | 5.0 | 0.00 | 0.02 | 0.33 | 56 | 1010.1 |
| 20260510031352 | 67 | 239 | 3.0 | 6.0 | 0.00 | 0.02 | 0.33 | 55 | 1010.0 |
| 20260510030851 | 67 | 274 | 5.0 | 6.0 | 0.00 | 0.02 | 0.33 | 55 | 1009.9 |
| 20260510025850 | 67 | 232 | 3.0 | 8.0 | 0.00 | 0.02 | 0.33 | 54 | 1009.8 |
| 20260510024849 | 68 | 236 | 2.0 | 3.0 | 0.00 | 0.02 | 0.33 | 54 | 1009.8 |
| 20260510024349 | 68 | 236 | 0.0 | 7.0 | 0.00 | 0.02 | 0.33 | 53 | 1009.7 |
| 20260510023848 | 68 | 231 | 3.0 | 6.0 | 0.00 | 0.02 | 0.33 | 53 | 1009.7 |
| 20260510023348 | 68 | 245 | 3.0 | 7.0 | 0.00 | 0.02 | 0.33 | 53 | 1009.6 |
| 20260510022847 | 68 | 215 | 5.0 | 7.0 | 0.00 | 0.02 | 0.33 | 53 | 1009.6 |
| 20260510022347 | 68 | 257 | 4.0 | 6.0 | 0.00 | 0.02 | 0.33 | 53 | 1009.6 |
| 20260510021846 | 68 | 235 | 2.0 | 6.0 | 0.00 | 0.02 | 0.33 | 52 | 1009.6 |
| 20260510021346 | 69 | 231 | 4.0 | 7.0 | 0.00 | 0.02 | 0.33 | 51 | 1009.6 |
| 20260510020845 | 69 | 257 | 3.0 | 7.0 | 0.00 | 0.02 | 0.33 | 51 | 1009.5 |
| 20260510020345 | 69 | 239 | 3.0 | 6.0 | 0.00 | 0.02 | 0.33 | 50 | 1009.3 |
| 20260510015844 | 69 | 278 | 3.0 | 7.0 | 0.00 | 0.02 | 0.33 | 49 | 1009.2 |
| 20260510015344 | 70 | 262 | 4.0 | 6.0 | 0.00 | 0.02 | 0.33 | 49 | 1009.0 |
| 20260510014843 | 70 | 269 | 5.0 | 8.0 | 0.00 | 0.02 | 0.33 | 48 | 1009.0 |
| 20260510014342 | 70 | 259 | 5.0 | 8.0 | 0.00 | 0.02 | 0.33 | 48 | 1008.9 |
| 20260510013842 | 70 | 239 | 5.0 | 9.0 | 0.00 | 0.02 | 0.33 | 47 | 1008.8 |
| 20260510013341 | 70 | 243 | 5.0 | 9.0 | 0.00 | 0.02 | 0.33 | 47 | 1008.8 |
| 20260510012841 | 71 | 246 | 4.0 | 10.0 | 0.00 | 0.02 | 0.33 | 47 | 1008.7 |
| 20260510012340 | 71 | 238 | 5.0 | 10.0 | 0.00 | 0.02 | 0.33 | 47 | 1008.6 |
| 20260510011339 | 71 | 231 | 5.0 | 9.0 | 0.00 | 0.02 | 0.33 | 47 | 1008.5 |
| 20260510010839 | 71 | 219 | 5.0 | 9.0 | 0.00 | 0.02 | 0.33 | 46 | 1008.4 |
| 20260510010337 | 71 | 277 | 4.0 | 8.0 | 0.00 | 0.02 | 0.33 | 46 | 1008.4 |
| 20260510005837 | 71 | 249 | 5.0 | 6.0 | 0.00 | 0.02 | 0.33 | 46 | 1008.3 |
| 20260510005336 | 71 | 243 | 4.0 | 10.0 | 0.00 | 0.02 | 0.33 | 45 | 1008.2 |
| 20260510004836 | 72 | 231 | 6.0 | 11.0 | 0.00 | 0.02 | 0.33 | 45 | 1008.2 |
| 20260510004333 | 72 | 259 | 7.0 | 10.0 | 0.00 | 0.02 | 0.33 | 45 | 1008.0 |
| 20260510003332 | 72 | 224 | 8.0 | 12.0 | 0.00 | 0.02 | 0.33 | 44 | 1007.9 |
| 20260510002331 | 72 | 222 | 6.0 | 16.0 | 0.00 | 0.02 | 0.33 | 44 | 1007.8 |
| 20260510001830 | 73 | 249 | 6.0 | 12.0 | 0.00 | 0.02 | 0.33 | 44 | 1007.7 |
| 20260510000829 | 73 | 228 | 9.0 | 11.0 | 0.00 | 0.02 | 0.33 | 43 | 1007.6 |
| 20260510000329 | 73 | 212 | 5.0 | 16.0 | 0.00 | 0.02 | 0.33 | 43 | 1007.5 |
| 20260509235328 | 74 | 236 | 12.0 | 15.0 | 0.00 | 0.02 | 0.33 | 42 | 1007.5 |
| 20260509234827 | 74 | 252 | 8.0 | 15.0 | 0.00 | 0.02 | 0.33 | 42 | 1007.5 |
| 20260509234327 | 74 | 208 | 8.0 | 14.0 | 0.00 | 0.02 | 0.33 | 42 | 1007.4 |
| 20260509233826 | 74 | 245 | 8.0 | 16.0 | 0.00 | 0.02 | 0.33 | 42 | 1007.4 |
| 20260509233326 | 74 | 239 | 7.0 | 14.0 | 0.00 | 0.02 | 0.33 | 42 | 1007.4 |
| 20260509232825 | 74 | 242 | 7.0 | 18.0 | 0.00 | 0.02 | 0.33 | 41 | 1007.3 |
| 20260509232325 | 74 | 242 | 8.0 | 17.0 | 0.00 | 0.02 | 0.33 | 41 | 1007.2 |
| 20260509231824 | 74 | 238 | 8.0 | 19.0 | 0.00 | 0.02 | 0.33 | 41 | 1007.2 |
| 20260509231323 | 74 | 239 | 8.0 | 16.0 | 0.00 | 0.02 | 0.33 | 40 | 1007.1 |
| 20260509230822 | 74 | 263 | 7.0 | 17.0 | 0.00 | 0.02 | 0.33 | 39 | 1007.1 |
| 20260509230322 | 74 | 281 | 10.0 | 16.0 | 0.00 | 0.02 | 0.33 | 39 | 1007.0 |
| 20260509225321 | 74 | 248 | 14.0 | 20.0 | 0.00 | 0.02 | 0.33 | 39 | 1007.2 |
| 20260509224820 | 74 | 260 | 12.0 | 17.0 | 0.00 | 0.02 | 0.33 | 40 | 1007.1 |
| 20260509224320 | 74 | 252 | 11.0 | 18.0 | 0.00 | 0.02 | 0.33 | 40 | 1007.1 |
| 20260509223819 | 75 | 214 | 8.0 | 18.0 | 0.00 | 0.02 | 0.33 | 41 | 1007.1 |
| 20260509223318 | 75 | 207 | 8.0 | 18.0 | 0.00 | 0.02 | 0.33 | 40 | 1007.0 |
| 20260509222818 | 75 | 238 | 8.0 | 13.0 | 0.00 | 0.02 | 0.33 | 40 | 1007.0 |
| 20260509222317 | 75 | 203 | 5.0 | 15.0 | 0.00 | 0.02 | 0.33 | 41 | 1007.0 |
| 20260509221817 | 75 | 214 | 5.0 | 15.0 | 0.00 | 0.02 | 0.33 | 41 | 1007.0 |
| 20260509221316 | 75 | 207 | 6.0 | 17.0 | 0.00 | 0.02 | 0.33 | 40 | 1007.1 |